Find Starlink 35044

NORAD ID: 65536 Int'l Des: 2025-200 Owner: SPXS Country: US Constellation: starlink operational
LEOCIRCULARRETROGRADESSO

現在のビュー

3D地球を読み込み中...

About Starlink 35044

Starlink 35044 (NORAD 65536) is a starlink constellation satellite (v2 mini) launched Sep 6, 2025 by SPXS of US. It operates in LEO, CIRCULAR, RETROGRADE, SSO orbit with a mass of 575.00 kg.

次回通過

Passes for default location (London). Set your location on the main map for personalized predictions.

高度履歴

Loading altitude history...

軌道要素

1 65536U 25200S 26263.41285967 .00020898 00000-0 64804-3 0 9997
2 65536 97.2852 329.8835 0000577 39.5349 320.5936 15.33436178 58631
Epoch: Sep 20, 2026 • Age: 13 hours

現在のステータス

高度 472.4 km
遠地点 / 近地点 N/A
速度 7.63 km/s
衛星直下点 44.87°N, 172.5°E
打ち上げ日 Sep 6, 2025
運用期間 1 year
タイプ internet

技術仕様

分類 Payload
質量 575.00 kg
乾燥質量 530.00 kg
長さ 0.30 m
スパン 29.00 m
形状 ? Box + pan
製造者 SPXS
バスタイプ Starlink V2MO
フェーズステータス In Orbit
所有者/国 SPXS/US

Most Searched